Location: Mercogliano
(40.9167°N, 14.7333°E)
Time: 02:43:33
(UTC+00:00)

X-37B - Pass Details

Date: 27 November 2020
Orbit: 383 x 391 km, 45.1° (Epoch: 22 January)

Event Time Altitude Azimuth Distance (km) Brightness Sun altitude
Rises 18:01:08 0° 254° (WSW) 2,256 5.7 -27.1°
Reaches altitude 10° 18:03:12 10° 256° (WSW) 1,406 4.4 -27.5°
Enters shadow 18:04:07 18° 259° (W) 1,037 3.5 -27.7°
